Location: Seasalter
(51.3333°N, 1.0167°E)
Time: 15:32:04
(UTC+00:00)

ATLAS 5 CENTAUR R/B - Pass Details

Date: 30 April 2024
Orbit: 421 x 1169 km, 63.3° (Epoch: 22 May)

Event Time Altitude Azimuth Distance (km) Brightness Sun altitude
Rises 01:56:42 0° 301° (WNW) 3,087 5.1 -18.5°
Reaches altitude 10° 01:59:58 10° 277° (W) 2,325 4.2 -18.2°
Enters shadow 02:00:38 12° 270° (W) 2,235 4.1 -18.2°
